Back to Top

Language: 

My Weather Underground Personal Weather Station Historical Data with Graphs...

Delerius Weather Station Historical Data
Daily Summary for November 18, 2017 Units:  Metric    English   Both
« Previous Day
Next Day »
Daily Weekly Monthly Yearly Custom
  High: Low: Average:
Temperature: 9.3 °C 3.3 °C 6.9 °C
Dew Point: 6.1 °C 0.3 °C 3.9 °C
Humidity: 88 % 68 % 81 %
Wind Speed: 29 km/h 0 km/h 13.4 km/h
Wind Gust: 45.1 km/h - -
Wind:- - WNW
Pressure: 1021.9 hPa 1018.8 hPa -
Precipitation: 0 mm    
Historical Graphs
 
 
Tabular Data for November 18, 2017
Time Temperature Dew Point Pressure Wind Wind Speed Wind Gust Humidity Rainfall Rate (Hourly) solar Conditions
00:02 5.9 °C 3.6 °C 1021.9 hPa WNW 24.1 km/h 33.8 km/h 85 % 0 mm 0 W/m2
00:07 5.9 °C 3.6 °C 1021.9 hPa West 22.5 km/h 35.4 km/h 85 % 0 mm 0 W/m2
00:12 5.9 °C 3.6 °C 1021.9 hPa WNW 24.1 km/h 37 km/h 85 % 0 mm 0 W/m2
00:17 5.9 °C 3.6 °C 1021.9 hPa West 25.7 km/h 45.1 km/h 85 % 0 mm 0 W/m2
00:22 6 °C 3.7 °C 1021.9 hPa WNW 27.4 km/h 38.6 km/h 85 % 0 mm 0 W/m2
00:27 6 °C 3.5 °C 1021.6 hPa West 24.1 km/h 38.6 km/h 84 % 0 mm 0 W/m2
00:32 6.1 °C 3.6 °C 1021.6 hPa West 24.1 km/h 38.6 km/h 84 % 0 mm 0 W/m2
00:37 6.1 °C 3.6 °C 1021.6 hPa West 29 km/h 43.5 km/h 84 % 0 mm 0 W/m2
00:42 6.2 °C 3.7 °C 1021.2 hPa West 24.1 km/h 35.4 km/h 84 % 0 mm 0 W/m2
00:47 6.2 °C 3.7 °C 1021.6 hPa West 24.1 km/h 37 km/h 84 % 0 mm 0 W/m2
00:52 6.2 °C 3.7 °C 1021.2 hPa West 25.7 km/h 41.8 km/h 84 % 0 mm 0 W/m2
00:57 6.2 °C 3.7 °C 1021.2 hPa West 25.7 km/h 40.2 km/h 84 % 0 mm 0 W/m2
01:02 6.3 °C 3.8 °C 1021.2 hPa West 22.5 km/h 37 km/h 84 % 0 mm 0 W/m2
01:07 6.2 °C 3.7 °C 1021.6 hPa West 24.1 km/h 40.2 km/h 84 % 0 mm 0 W/m2
01:12 6.2 °C 3.7 °C 1021.6 hPa West 24.1 km/h 35.4 km/h 84 % 0 mm 0 W/m2
01:17 6.2 °C 3.7 °C 1021.2 hPa West 24.1 km/h 38.6 km/h 84 % 0 mm 0 W/m2
01:22 6.1 °C 3.6 °C 1021.2 hPa West 22.5 km/h 35.4 km/h 84 % 0 mm 0 W/m2
01:27 6.1 °C 3.6 °C 1021.2 hPa WNW 24.1 km/h 38.6 km/h 84 % 0 mm 0 W/m2
01:32 6.1 °C 3.6 °C 1021.2 hPa West 22.5 km/h 37 km/h 84 % 0 mm 0 W/m2
01:37 6.1 °C 3.8 °C 1021.2 hPa West 20.9 km/h 32.2 km/h 85 % 0 mm 0 W/m2
01:42 6.1 °C 3.8 °C 1021.2 hPa West 19.3 km/h 30.6 km/h 85 % 0 mm 0 W/m2
01:47 6.1 °C 3.8 °C 1021.2 hPa West 19.3 km/h 25.7 km/h 85 % 0 mm 0 W/m2
01:52 6.1 °C 3.8 °C 1021.2 hPa West 16.1 km/h 29 km/h 85 % 0 mm 0 W/m2
01:57 6.1 °C 3.8 °C 1021.2 hPa West 22.5 km/h 43.5 km/h 85 % 0 mm 0 W/m2
02:02 6.1 °C 3.8 °C 1021.2 hPa West 20.9 km/h 35.4 km/h 85 % 0 mm 0 W/m2
02:07 6.1 °C 3.8 °C 1021.2 hPa WNW 22.5 km/h 38.6 km/h 85 % 0 mm 0 W/m2
02:12 6 °C 3.7 °C 1020.9 hPa West 22.5 km/h 40.2 km/h 85 % 0 mm 0 W/m2
02:17 6.1 °C 3.8 °C 1020.9 hPa West 24.1 km/h 35.4 km/h 85 % 0 mm 0 W/m2
02:18 6.1 °C 3.8 °C 1020.9 hPa West 24.1 km/h 35.4 km/h 85 % 0 mm 0 W/m2
02:23 6.2 °C 4.1 °C 1020.9 hPa West 25.7 km/h 40.2 km/h 86 % 0 mm 0 W/m2
02:28 6.3 °C 3.9 °C 1020.9 hPa West 22.5 km/h 33.8 km/h 85 % 0 mm 0 W/m2
02:33 6.5 °C 4.2 °C 1020.9 hPa West 25.7 km/h 37 km/h 85 % 0 mm 0 W/m2
02:38 6.6 °C 4.3 °C 1020.5 hPa West 22.5 km/h 40.2 km/h 85 % 0 mm 0 W/m2
02:43 6.6 °C 4.1 °C 1020.5 hPa West 24.1 km/h 38.6 km/h 84 % 0 mm 0 W/m2
02:48 6.6 °C 4.1 °C 1020.5 hPa West 25.7 km/h 37 km/h 84 % 0 mm 0 W/m2
02:53 6.7 °C 4.2 °C 1020.5 hPa West 25.7 km/h 41.8 km/h 84 % 0 mm 0 W/m2
02:58 6.7 °C 4.2 °C 1020.5 hPa West 22.5 km/h 38.6 km/h 84 % 0 mm 0 W/m2
03:03 6.7 °C 4 °C 1020.5 hPa West 25.7 km/h 40.2 km/h 83 % 0 mm 0 W/m2
03:08 6.8 °C 4.1 °C 1020.5 hPa West 19.3 km/h 33.8 km/h 83 % 0 mm 0 W/m2
03:13 6.8 °C 4.1 °C 1020.5 hPa West 20.9 km/h 33.8 km/h 83 % 0 mm 0 W/m2
03:20 6.8 °C 4.3 °C 1020.2 hPa West 22.5 km/h 35.4 km/h 84 % 0 mm 0 W/m2
03:22 6.8 °C 4.3 °C 1020.2 hPa West 20.9 km/h 32.2 km/h 84 % 0 mm 0 W/m2
03:24 6.8 °C 4.3 °C 1020.2 hPa West 19.3 km/h 33.8 km/h 84 % 0 mm 0 W/m2
03:26 6.7 °C 4.2 °C 1020.2 hPa West 22.5 km/h 38.6 km/h 84 % 0 mm 0 W/m2
03:31 6.8 °C 4.3 °C 1020.2 hPa West 24.1 km/h 41.8 km/h 84 % 0 mm 0 W/m2
03:36 6.8 °C 4.3 °C 1020.2 hPa West 20.9 km/h 30.6 km/h 84 % 0 mm 0 W/m2
03:46 6.8 °C 4.4 °C 1020.2 hPa West 17.7 km/h 30.6 km/h 85 % 0 mm 0 W/m2
03:51 6.8 °C 4.4 °C 1020.2 hPa West 17.7 km/h 30.6 km/h 85 % 0 mm 0 W/m2
03:56 6.8 °C 4.4 °C 1020.2 hPa West 16.1 km/h 22.5 km/h 85 % 0 mm 0 W/m2
04:01 6.8 °C 4.4 °C 1020.2 hPa West 22.5 km/h 35.4 km/h 85 % 0 mm 0 W/m2
04:06 6.9 °C 4.6 °C 1020.2 hPa West 17.7 km/h 24.1 km/h 85 % 0 mm 0 W/m2
04:11 6.9 °C 4.6 °C 1020.2 hPa West 19.3 km/h 29 km/h 85 % 0 mm 0 W/m2
04:16 7 °C 4.7 °C 1020.2 hPa West 22.5 km/h 38.6 km/h 85 % 0 mm 0 W/m2
04:21 7.1 °C 4.6 °C 1020.2 hPa West 19.3 km/h 30.6 km/h 84 % 0 mm 0 W/m2
04:26 7.2 °C 4.7 °C 1019.9 hPa WSW 19.3 km/h 35.4 km/h 84 % 0 mm 0 W/m2
04:31 7.2 °C 4.7 °C 1019.9 hPa WSW 20.9 km/h 32.2 km/h 84 % 0 mm 0 W/m2
04:34 7.2 °C 4.7 °C 1019.9 hPa WSW 17.7 km/h 25.7 km/h 84 % 0 mm 0 W/m2
04:39 7.2 °C 4.7 °C 1019.9 hPa WSW 17.7 km/h 24.1 km/h 84 % 0 mm 0 W/m2
04:44 7.2 °C 4.7 °C 1019.9 hPa WSW 17.7 km/h 25.7 km/h 84 % 0 mm 0 W/m2
04:49 7.3 °C 4.8 °C 1019.9 hPa WSW 19.3 km/h 30.6 km/h 84 % 0 mm 0 W/m2
04:54 7.3 °C 4.8 °C 1019.9 hPa WSW 14.5 km/h 22.5 km/h 84 % 0 mm 0 W/m2
04:59 7.3 °C 4.8 °C 1019.9 hPa WSW 19.3 km/h 30.6 km/h 84 % 0 mm 0 W/m2
05:04 7.3 °C 4.8 °C 1019.9 hPa WSW 11.3 km/h 20.9 km/h 84 % 0 mm 0 W/m2
05:09 7.4 °C 4.9 °C 1019.5 hPa WSW 9.7 km/h 16.1 km/h 84 % 0 mm 0 W/m2
05:15 7.4 °C 4.9 °C 1019.5 hPa WSW 12.9 km/h 17.7 km/h 84 % 0 mm 0 W/m2
05:20 7.4 °C 4.9 °C 1019.5 hPa SW 12.9 km/h 19.3 km/h 84 % 0 mm 0 W/m2
05:25 7.4 °C 4.9 °C 1019.5 hPa WSW 12.9 km/h 19.3 km/h 84 % 0 mm 0 W/m2
05:30 7.4 °C 4.9 °C 1019.5 hPa WSW 14.5 km/h 22.5 km/h 84 % 0 mm 0 W/m2
05:35 7.5 °C 5.2 °C 1019.5 hPa West 12.9 km/h 24.1 km/h 85 % 0 mm 0 W/m2
05:40 7.6 °C 5.2 °C 1019.5 hPa West 8 km/h 17.7 km/h 85 % 0 mm 0 W/m2
05:45 7.5 °C 5.2 °C 1019.5 hPa West 8 km/h 16.1 km/h 85 % 0 mm 0 W/m2
05:50 7.6 °C 5.2 °C 1019.5 hPa West 9.7 km/h 12.9 km/h 85 % 0 mm 0 W/m2
05:55 7.5 °C 5.3 °C 1019.5 hPa WSW 11.3 km/h 17.7 km/h 86 % 0 mm 0 W/m2
06:00 7.5 °C 5.3 °C 1019.2 hPa WSW 11.3 km/h 20.9 km/h 86 % 0 mm 0 W/m2
06:05 7.5 °C 5.3 °C 1019.2 hPa West 11.3 km/h 17.7 km/h 86 % 0 mm 0 W/m2
06:10 7.4 °C 5.2 °C 1019.2 hPa West 6.4 km/h 14.5 km/h 86 % 0 mm 0 W/m2
06:15 7.4 °C 5.2 °C 1019.5 hPa West 9.7 km/h 16.1 km/h 86 % 0 mm 0 W/m2
06:20 7.5 °C 5.2 °C 1019.2 hPa WNW 14.5 km/h 20.9 km/h 85 % 0 mm 0 W/m2
06:25 7.6 °C 5.2 °C 1019.2 hPa West 9.7 km/h 19.3 km/h 85 % 0 mm 0 W/m2
06:30 7.7 °C 5.2 °C 1019.5 hPa West 14.5 km/h 25.7 km/h 84 % 0 mm 0 W/m2
06:35 7.7 °C 5.2 °C 1019.2 hPa West 11.3 km/h 14.5 km/h 84 % 0 mm 0 W/m2
06:40 7.8 °C 5.3 °C 1019.2 hPa West 11.3 km/h 22.5 km/h 84 % 0 mm 0 W/m2
06:45 7.8 °C 5.3 °C 1019.2 hPa West 9.7 km/h 20.9 km/h 84 % 0 mm 0 W/m2
06:50 7.8 °C 5.1 °C 1019.5 hPa West 17.7 km/h 32.2 km/h 83 % 0 mm 0 W/m2
06:55 7.9 °C 5.2 °C 1019.5 hPa West 17.7 km/h 33.8 km/h 83 % 0 mm 0 W/m2
07:00 8 °C 5.3 °C 1019.5 hPa WNW 16.1 km/h 25.7 km/h 83 % 0 mm 0 W/m2
07:05 8 °C 5.3 °C 1019.5 hPa West 16.1 km/h 24.1 km/h 83 % 0 mm 0 W/m2
07:10 8 °C 5.3 °C 1019.5 hPa WNW 16.1 km/h 22.5 km/h 83 % 0 mm 0 W/m2
07:15 8 °C 5.3 °C 1019.5 hPa WNW 14.5 km/h 19.3 km/h 83 % 0 mm 0 W/m2
07:20 7.9 °C 5.2 °C 1019.5 hPa WNW 20.9 km/h 32.2 km/h 83 % 0 mm 0 W/m2
07:25 7.9 °C 5.2 °C 1019.5 hPa WNW 14.5 km/h 20.9 km/h 83 % 0 mm 0 W/m2
07:30 7.9 °C 5.2 °C 1019.5 hPa West 16.1 km/h 20.9 km/h 83 % 0 mm 0 W/m2
07:35 7.8 °C 5.1 °C 1019.5 hPa West 12.9 km/h 25.7 km/h 83 % 0 mm 0 W/m2
07:40 7.8 °C 5.1 °C 1019.5 hPa WNW 16.1 km/h 20.9 km/h 83 % 0 mm 5 W/m2
07:45 7.8 °C 5.1 °C 1019.5 hPa WNW 16.1 km/h 24.1 km/h 83 % 0 mm 5 W/m2
07:50 7.8 °C 5.3 °C 1019.5 hPa West 14.5 km/h 22.5 km/h 84 % 0 mm 7 W/m2
07:55 7.8 °C 5.3 °C 1019.5 hPa WNW 14.5 km/h 22.5 km/h 84 % 0 mm 9 W/m2
08:00 7.8 °C 5.3 °C 1019.5 hPa West 17.7 km/h 25.7 km/h 84 % 0 mm 12 W/m2
08:05 7.7 °C 5.2 °C 1019.5 hPa West 12.9 km/h 17.7 km/h 84 % 0 mm 19 W/m2
08:10 7.6 °C 5.1 °C 1019.5 hPa West 14.5 km/h 19.3 km/h 84 % 0 mm 33 W/m2
08:15 7.6 °C 5.1 °C 1019.9 hPa WNW 12.9 km/h 19.3 km/h 84 % 0 mm 37 W/m2
08:20 7.6 °C 5.1 °C 1019.5 hPa WNW 17.7 km/h 24.1 km/h 84 % 0 mm 40 W/m2
08:25 7.7 °C 5.2 °C 1019.5 hPa WNW 12.9 km/h 17.7 km/h 84 % 0 mm 23 W/m2
08:30 7.7 °C 5.2 °C 1019.5 hPa West 12.9 km/h 17.7 km/h 84 % 0 mm 51 W/m2
08:35 7.8 °C 5.3 °C 1019.5 hPa West 12.9 km/h 24.1 km/h 84 % 0 mm 37 W/m2
08:40 7.8 °C 5.1 °C 1019.5 hPa WNW 12.9 km/h 20.9 km/h 83 % 0 mm 25 W/m2
08:45 7.8 °C 5.1 °C 1019.5 hPa West 16.1 km/h 25.7 km/h 83 % 0 mm 32 W/m2
08:50 7.8 °C 5.1 °C 1019.5 hPa West 14.5 km/h 24.1 km/h 83 % 0 mm 33 W/m2
08:55 7.9 °C 5.2 °C 1019.5 hPa West 17.7 km/h 30.6 km/h 83 % 0 mm 40 W/m2
09:00 8 °C 5.1 °C 1019.5 hPa West 16.1 km/h 30.6 km/h 82 % 0 mm 47 W/m2
09:05 8.2 °C 5.3 °C 1019.9 hPa WNW 16.1 km/h 29 km/h 82 % 0 mm 160 W/m2
09:10 8.3 °C 5.2 °C 1019.9 hPa WNW 12.9 km/h 24.1 km/h 81 % 0 mm 163 W/m2
09:15 8.5 °C 5.4 °C 1019.9 hPa WNW 14.5 km/h 19.3 km/h 81 % 0 mm 197 W/m2
09:20 8.7 °C 5.4 °C 1019.9 hPa West 12.9 km/h 25.7 km/h 80 % 0 mm 114 W/m2
09:25 8.8 °C 5.3 °C 1019.9 hPa West 12.9 km/h 20.9 km/h 79 % 0 mm 88 W/m2
09:30 8.8 °C 5.3 °C 1019.9 hPa WNW 16.1 km/h 20.9 km/h 79 % 0 mm 281 W/m2
09:35 9 °C 5.6 °C 1019.9 hPa West 14.5 km/h 29 km/h 79 % 0 mm 214 W/m2
09:40 9.1 °C 5.3 °C 1019.9 hPa West 16.1 km/h 25.7 km/h 77 % 0 mm 39 W/m2
09:45 9.1 °C 5.3 °C 1019.9 hPa West 11.3 km/h 19.3 km/h 77 % 0 mm 62 W/m2
09:50 9 °C 5.2 °C 1019.9 hPa WNW 19.3 km/h 32.2 km/h 77 % 0 mm 69 W/m2
09:55 8.9 °C 5.1 °C 1019.9 hPa West 12.9 km/h 20.9 km/h 77 % 0 mm 93 W/m2
09:56 8.9 °C 5.1 °C 1019.9 hPa West 14.5 km/h 20.9 km/h 77 % 0 mm 79 W/m2
10:01 8.9 °C 5.3 °C 1019.9 hPa West 12.9 km/h 20.9 km/h 78 % 0 mm 42 W/m2
10:06 8.8 °C 5 °C 1019.9 hPa West 12.9 km/h 20.9 km/h 77 % 0 mm 40 W/m2
10:11 8.8 °C 5.2 °C 1019.9 hPa WNW 14.5 km/h 20.9 km/h 78 % 0 mm 39 W/m2
10:16 8.8 °C 5.2 °C 1019.9 hPa WNW 11.3 km/h 22.5 km/h 78 % 0 mm 60 W/m2
10:21 8.8 °C 5.2 °C 1019.9 hPa WNW 8 km/h 11.3 km/h 78 % 0 mm 35 W/m2
10:26 8.8 °C 5.2 °C 1019.9 hPa WNW 14.5 km/h 24.1 km/h 78 % 0 mm 32 W/m2
10:31 8.8 °C 5.2 °C 1019.9 hPa WNW 14.5 km/h 20.9 km/h 78 % 0 mm 30 W/m2
10:36 8.8 °C 5.2 °C 1019.9 hPa NW 12.9 km/h 25.7 km/h 78 % 0 mm 30 W/m2
10:41 8.8 °C 5.3 °C 1019.5 hPa WNW 14.5 km/h 20.9 km/h 79 % 0 mm 51 W/m2
10:46 8.7 °C 5.3 °C 1019.5 hPa WNW 11.3 km/h 17.7 km/h 79 % 0 mm 84 W/m2
10:51 8.8 °C 5.6 °C 1019.5 hPa WNW 12.9 km/h 19.3 km/h 80 % 0 mm 67 W/m2
10:56 8.8 °C 5.3 °C 1019.5 hPa WNW 12.9 km/h 20.9 km/h 79 % 0 mm 35 W/m2
11:01 8.8 °C 5.6 °C 1019.9 hPa WNW 9.7 km/h 14.5 km/h 80 % 0 mm 32 W/m2
11:06 8.8 °C 5.6 °C 1019.9 hPa WNW 14.5 km/h 25.7 km/h 80 % 0 mm 60 W/m2
11:11 8.7 °C 5.8 °C 1019.5 hPa WNW 16.1 km/h 25.7 km/h 82 % 0 mm 111 W/m2
11:16 8.6 °C 5.9 °C 1019.5 hPa WNW 12.9 km/h 17.7 km/h 83 % 0 mm 151 W/m2
11:21 8.6 °C 5.9 °C 1019.5 hPa WNW 14.5 km/h 24.1 km/h 83 % 0 mm 134 W/m2
11:27 8.7 °C 6 °C 1019.5 hPa WNW 16.1 km/h 22.5 km/h 83 % 0 mm 144 W/m2
11:31 8.8 °C 6.1 °C 1019.5 hPa WNW 16.1 km/h 22.5 km/h 83 % 0 mm 121 W/m2
11:37 8.8 °C 5.9 °C 1019.2 hPa WNW 16.1 km/h 24.1 km/h 82 % 0 mm 132 W/m2
11:42 8.8 °C 5.7 °C 1019.2 hPa WNW 16.1 km/h 29 km/h 81 % 0 mm 142 W/m2
11:47 8.9 °C 5.6 °C 1019.2 hPa WNW 17.7 km/h 24.1 km/h 80 % 0 mm 77 W/m2
11:52 8.9 °C 5.6 °C 1019.2 hPa WNW 16.1 km/h 24.1 km/h 80 % 0 mm 58 W/m2
11:57 8.9 °C 5.6 °C 1019.2 hPa WNW 16.1 km/h 32.2 km/h 80 % 0 mm 49 W/m2
12:02 8.8 °C 5.6 °C 1019.2 hPa WNW 17.7 km/h 29 km/h 80 % 0 mm 62 W/m2
12:07 8.8 °C 5.6 °C 1019.2 hPa WNW 17.7 km/h 33.8 km/h 80 % 0 mm 49 W/m2
12:12 8.7 °C 5.8 °C 1019.5 hPa NW 16.1 km/h 25.7 km/h 82 % 0 mm 67 W/m2
12:17 8.6 °C 5.9 °C 1019.2 hPa WNW 16.1 km/h 30.6 km/h 83 % 0 mm 104 W/m2
12:22 8.4 °C 5.8 °C 1019.2 hPa WNW 16.1 km/h 22.5 km/h 84 % 0 mm 125 W/m2
12:27 8.3 °C 5.9 °C 1019.5 hPa WNW 14.5 km/h 20.9 km/h 85 % 0 mm 86 W/m2
12:32 8.3 °C 5.9 °C 1019.2 hPa WNW 14.5 km/h 19.3 km/h 85 % 0 mm 127 W/m2
12:37 8.3 °C 5.9 °C 1019.2 hPa WNW 14.5 km/h 20.9 km/h 85 % 0 mm 109 W/m2
12:42 8.3 °C 5.9 °C 1019.2 hPa WNW 17.7 km/h 29 km/h 85 % 0 mm 176 W/m2
12:47 8.5 °C 6.1 °C 1019.2 hPa WNW 14.5 km/h 20.9 km/h 85 % 0 mm 163 W/m2
12:52 8.6 °C 6.1 °C 1019.2 hPa NW 12.9 km/h 20.9 km/h 84 % 0 mm 90 W/m2
12:57 8.7 °C 6 °C 1019.2 hPa WNW 14.5 km/h 24.1 km/h 83 % 0 mm 77 W/m2
13:02 8.7 °C 5.6 °C 1019.2 hPa WNW 14.5 km/h 22.5 km/h 81 % 0 mm 74 W/m2
13:07 8.7 °C 5.3 °C 1019.2 hPa NW 17.7 km/h 32.2 km/h 79 % 0 mm 81 W/m2
13:12 8.7 °C 5.3 °C 1019.2 hPa WNW 12.9 km/h 20.9 km/h 79 % 0 mm 98 W/m2
13:17 8.8 °C 5.2 °C 1019.2 hPa NW 14.5 km/h 25.7 km/h 78 % 0 mm 123 W/m2
13:22 8.8 °C 5 °C 1019.2 hPa WNW 14.5 km/h 25.7 km/h 77 % 0 mm 130 W/m2
13:27 8.9 °C 5.1 °C 1019.2 hPa NW 12.9 km/h 22.5 km/h 77 % 0 mm 93 W/m2
13:32 8.9 °C 4.9 °C 1019.2 hPa NW 17.7 km/h 30.6 km/h 76 % 0 mm 86 W/m2
13:37 8.9 °C 4.9 °C 1019.2 hPa NW 16.1 km/h 29 km/h 76 % 0 mm 102 W/m2
13:42 8.9 °C 4.7 °C 1019.2 hPa WNW 16.1 km/h 25.7 km/h 75 % 0 mm 102 W/m2
13:47 8.8 °C 4.8 °C 1019.2 hPa NW 12.9 km/h 22.5 km/h 76 % 0 mm 125 W/m2
13:52 8.9 °C 5.1 °C 1019.2 hPa WNW 19.3 km/h 32.2 km/h 77 % 0 mm 169 W/m2
13:57 9 °C 5.4 °C 1019.2 hPa NW 16.1 km/h 30.6 km/h 78 % 0 mm 146 W/m2
14:02 9.1 °C 5.1 °C 1019.2 hPa WNW 14.5 km/h 22.5 km/h 76 % 0 mm 264 W/m2
14:07 9.3 °C 5.1 °C 1019.2 hPa WNW 12.9 km/h 20.9 km/h 75 % 0 mm 86 W/m2
14:12 9.3 °C 4.9 °C 1019.2 hPa NW 17.7 km/h 29 km/h 74 % 0 mm 74 W/m2
14:17 9.2 °C 4.6 °C 1019.2 hPa NW 14.5 km/h 25.7 km/h 73 % 0 mm 62 W/m2
14:22 9.1 °C 4.5 °C 1019.2 hPa NW 14.5 km/h 22.5 km/h 73 % 0 mm 58 W/m2
14:27 9 °C 4.4 °C 1019.2 hPa NW 14.5 km/h 24.1 km/h 73 % 0 mm 54 W/m2
14:32 8.9 °C 4.1 °C 1019.2 hPa NW 14.5 km/h 24.1 km/h 72 % 0 mm 47 W/m2
14:37 8.8 °C 4 °C 1019.2 hPa WNW 12.9 km/h 25.7 km/h 72 % 0 mm 44 W/m2
14:42 8.7 °C 3.9 °C 1019.2 hPa NW 11.3 km/h 19.3 km/h 72 % 0 mm 44 W/m2
14:47 8.7 °C 4.1 °C 1019.2 hPa WNW 11.3 km/h 17.7 km/h 73 % 0 mm 37 W/m2
14:52 8.6 °C 4.1 °C 1019.2 hPa NW 12.9 km/h 24.1 km/h 73 % 0 mm 32 W/m2
14:57 8.6 °C 3.8 °C 1019.2 hPa NW 12.9 km/h 17.7 km/h 72 % 0 mm 33 W/m2
15:02 8.5 °C 3.6 °C 1019.2 hPa NW 9.7 km/h 17.7 km/h 71 % 0 mm 33 W/m2
15:07 8.5 °C 3.3 °C 1019.2 hPa WNW 14.5 km/h 24.1 km/h 70 % 0 mm 33 W/m2
15:12 8.4 °C 3.1 °C 1019.2 hPa NW 11.3 km/h 19.3 km/h 69 % 0 mm 28 W/m2
15:17 8.4 °C 3.1 °C 1019.2 hPa NW 12.9 km/h 19.3 km/h 69 % 0 mm 26 W/m2
15:22 8.3 °C 2.7 °C 1019.2 hPa NW 12.9 km/h 24.1 km/h 68 % 0 mm 19 W/m2
15:27 8.3 °C 2.7 °C 1019.2 hPa NW 14.5 km/h 25.7 km/h 68 % 0 mm 19 W/m2
15:33 8.3 °C 2.9 °C 1019.2 hPa NW 8 km/h 16.1 km/h 69 % 0 mm 16 W/m2
15:38 8.3 °C 2.9 °C 1019.2 hPa NW 14.5 km/h 22.5 km/h 69 % 0 mm 11 W/m2
15:43 8.2 °C 3.1 °C 1019.2 hPa WNW 9.7 km/h 16.1 km/h 70 % 0 mm 7 W/m2
15:48 8.2 °C 3.1 °C 1019.2 hPa NW 11.3 km/h 17.7 km/h 70 % 0 mm 5 W/m2
15:53 8.1 °C 3.2 °C 1018.8 hPa NW 9.7 km/h 16.1 km/h 71 % 0 mm 5 W/m2
15:58 8 °C 3.1 °C 1019.2 hPa NW 9.7 km/h 16.1 km/h 71 % 0 mm 0 W/m2
16:03 7.9 °C 2.9 °C 1018.8 hPa NW 9.7 km/h 14.5 km/h 71 % 0 mm 0 W/m2
16:08 7.9 °C 3.2 °C 1018.8 hPa WNW 9.7 km/h 16.1 km/h 72 % 0 mm 0 W/m2
16:13 7.9 °C 3.3 °C 1019.2 hPa WNW 9.7 km/h 16.1 km/h 73 % 0 mm 0 W/m2
16:18 7.8 °C 3.4 °C 1019.2 hPa WNW 9.7 km/h 14.5 km/h 74 % 0 mm 0 W/m2
16:23 7.7 °C 3.3 °C 1018.8 hPa WNW 11.3 km/h 17.7 km/h 74 % 0 mm 0 W/m2
16:28 7.7 °C 3.3 °C 1018.8 hPa WNW 16.1 km/h 32.2 km/h 74 % 0 mm 0 W/m2
16:33 7.6 °C 3.3 °C 1018.8 hPa WNW 11.3 km/h 17.7 km/h 74 % 0 mm 0 W/m2
16:38 7.4 °C 3.1 °C 1018.8 hPa WNW 9.7 km/h 14.5 km/h 74 % 0 mm 0 W/m2
16:43 7.3 °C 3.2 °C 1019.2 hPa WNW 9.7 km/h 12.9 km/h 75 % 0 mm 0 W/m2
16:48 7.2 °C 3.1 °C 1019.2 hPa WNW 9.7 km/h 17.7 km/h 75 % 0 mm 0 W/m2
16:53 7.2 °C 3.2 °C 1019.2 hPa WNW 8 km/h 11.3 km/h 76 % 0 mm 0 W/m2
16:58 7.2 °C 3.2 °C 1019.2 hPa WNW 6.4 km/h 11.3 km/h 76 % 0 mm 0 W/m2
17:03 7.1 °C 3.2 °C 1019.2 hPa WNW 6.4 km/h 11.3 km/h 76 % 0 mm 0 W/m2
17:08 7.1 °C 3.2 °C 1019.2 hPa WNW 8 km/h 11.3 km/h 76 % 0 mm 0 W/m2
17:13 7.1 °C 3.2 °C 1019.2 hPa WNW 11.3 km/h 14.5 km/h 76 % 0 mm 0 W/m2
17:18 7 °C 3.1 °C 1019.2 hPa WNW 14.5 km/h 19.3 km/h 76 % 0 mm 0 W/m2
17:23 7.1 °C 3.2 °C 1019.2 hPa WNW 14.5 km/h 19.3 km/h 76 % 0 mm 0 W/m2
17:28 7.1 °C 2.9 °C 1019.2 hPa WNW 11.3 km/h 14.5 km/h 75 % 0 mm 0 W/m2
17:33 7.1 °C 2.9 °C 1019.2 hPa WNW 11.3 km/h 14.5 km/h 75 % 0 mm 0 W/m2
17:38 7 °C 2.9 °C 1019.2 hPa WNW 9.7 km/h 14.5 km/h 75 % 0 mm 0 W/m2
17:43 6.9 °C 2.8 °C 1019.2 hPa WNW 8 km/h 17.7 km/h 75 % 0 mm 0 W/m2
17:48 6.9 °C 2.8 °C 1019.2 hPa NNW 4.8 km/h 11.3 km/h 75 % 0 mm 0 W/m2
17:53 6.8 °C 2.7 °C 1019.5 hPa NW 8 km/h 17.7 km/h 75 % 0 mm 0 W/m2
17:58 6.8 °C 2.7 °C 1019.5 hPa NNW 3.2 km/h 9.7 km/h 75 % 0 mm 0 W/m2
18:03 6.7 °C 2.6 °C 1019.5 hPa NW 4.8 km/h 9.7 km/h 75 % 0 mm 0 W/m2
18:08 6.6 °C 2.7 °C 1019.5 hPa NW 4.8 km/h 11.3 km/h 76 % 0 mm 0 W/m2
18:13 6.5 °C 2.6 °C 1019.9 hPa NW 3.2 km/h 6.4 km/h 76 % 0 mm 0 W/m2
18:18 6.3 °C 2.6 °C 1019.5 hPa WNW 6.4 km/h 14.5 km/h 77 % 0 mm 0 W/m2
18:23 6.3 °C 2.7 °C 1019.5 hPa WNW 8 km/h 11.3 km/h 78 % 0 mm 0 W/m2
18:28 6.2 °C 2.7 °C 1019.5 hPa WNW 4.8 km/h 9.7 km/h 78 % 0 mm 0 W/m2
18:33 6 °C 2.4 °C 1019.5 hPa WNW 4.8 km/h 9.7 km/h 78 % 0 mm 0 W/m2
18:38 5.8 °C 2.4 °C 1019.5 hPa WNW 4.8 km/h 8 km/h 79 % 0 mm 0 W/m2
18:43 5.6 °C 2.4 °C 1019.5 hPa WNW 4.8 km/h 8 km/h 80 % 0 mm 0 W/m2
18:48 5.4 °C 2.4 °C 1019.5 hPa WNW 6.4 km/h 11.3 km/h 81 % 0 mm 0 W/m2
18:53 5.3 °C 2.5 °C 1019.5 hPa WNW 3.2 km/h 8 km/h 82 % 0 mm 0 W/m2
18:58 5.3 °C 2.5 °C 1019.5 hPa WNW 1.6 km/h 4.8 km/h 82 % 0 mm 0 W/m2
19:03 5.1 °C 2.3 °C 1019.5 hPa WNW 1.6 km/h 4.8 km/h 82 % 0 mm 0 W/m2
19:08 4.9 °C 2.3 °C 1019.5 hPa Calm   3.2 km/h 83 % 0 mm 0 W/m2
19:13 4.8 °C 2.3 °C 1019.9 hPa NNW 3.2 km/h 6.4 km/h 84 % 0 mm 0 W/m2
19:18 4.8 °C 2.3 °C 1019.9 hPa NW 3.2 km/h 8 km/h 84 % 0 mm 0 W/m2
19:23 4.7 °C 2.4 °C 1019.9 hPa NW 1.6 km/h 3.2 km/h 85 % 0 mm 0 W/m2
19:28 4.6 °C 2.3 °C 1019.9 hPa NW 3.2 km/h 9.7 km/h 85 % 0 mm 0 W/m2
19:33 4.6 °C 2.3 °C 1019.9 hPa Calm   3.2 km/h 85 % 0 mm 0 W/m2
19:38 4.6 °C 2.4 °C 1019.5 hPa Calm     86 % 0 mm 0 W/m2
19:43 4.5 °C 2.3 °C 1019.9 hPa Calm     86 % 0 mm 0 W/m2
19:53 4.4 °C 2.3 °C 1019.9 hPa Calm     86 % 0 mm 0 W/m2
19:58 4.4 °C 2.4 °C 1019.9 hPa West 1.6 km/h 6.4 km/h 87 % 0 mm 0 W/m2
20:03 4.5 °C 2.5 °C 1020.2 hPa WNW 1.6 km/h 4.8 km/h 87 % 0 mm 0 W/m2
20:08 4.4 °C 2.4 °C 1020.2 hPa Calm   1.6 km/h 87 % 0 mm 0 W/m2
20:13 4.4 °C 2.4 °C 1020.2 hPa Calm     87 % 0 mm 0 W/m2
20:18 4.3 °C 2.3 °C 1019.9 hPa Calm     87 % 0 mm 0 W/m2
20:23 4.3 °C 2.3 °C 1020.2 hPa WNW 4.8 km/h 6.4 km/h 87 % 0 mm 0 W/m2
20:28 4.3 °C 2.3 °C 1020.2 hPa WNW 4.8 km/h 8 km/h 87 % 0 mm 0 W/m2
20:33 4.3 °C 2.3 °C 1019.9 hPa WNW 8 km/h 11.3 km/h 87 % 0 mm 0 W/m2
20:38 4.3 °C 2.5 °C 1020.2 hPa WNW 9.7 km/h 12.9 km/h 88 % 0 mm 0 W/m2
20:43 4.4 °C 2.4 °C 1020.2 hPa WNW 8 km/h 11.3 km/h 87 % 0 mm 0 W/m2
20:48 4.4 °C 2.4 °C 1020.2 hPa WNW 8 km/h 11.3 km/h 87 % 0 mm 0 W/m2
20:53 4.3 °C 2.3 °C 1020.2 hPa WNW 8 km/h 11.3 km/h 87 % 0 mm 0 W/m2
20:58 4.3 °C 2.3 °C 1020.2 hPa WNW 8 km/h 11.3 km/h 87 % 0 mm 0 W/m2
21:03 4.2 °C 2.2 °C 1020.2 hPa WNW 9.7 km/h 12.9 km/h 87 % 0 mm 0 W/m2
21:08 4.2 °C 2.2 °C 1020.2 hPa WNW 6.4 km/h 11.3 km/h 87 % 0 mm 0 W/m2
21:13 4.1 °C 1.9 °C 1020.2 hPa WNW 3.2 km/h 8 km/h 86 % 0 mm 0 W/m2
21:18 3.9 °C 1.8 °C 1020.2 hPa WNW 4.8 km/h 8 km/h 86 % 0 mm 0 W/m2
21:23 3.9 °C 1.8 °C 1020.2 hPa WNW 6.4 km/h 11.3 km/h 86 % 0 mm 0 W/m2
21:29 3.8 °C 1.7 °C 1019.9 hPa WNW 6.4 km/h 9.7 km/h 86 % 0 mm 0 W/m2
21:34 3.7 °C 1.6 °C 1019.9 hPa WNW 6.4 km/h 11.3 km/h 86 % 0 mm 0 W/m2
21:39 3.6 °C 1.5 °C 1020.2 hPa WNW 6.4 km/h 9.7 km/h 86 % 0 mm 0 W/m2
21:44 3.6 °C 1.5 °C 1020.2 hPa WNW 4.8 km/h 8 km/h 86 % 0 mm 0 W/m2
21:49 3.5 °C 1.6 °C 1020.2 hPa NW 4.8 km/h 9.7 km/h 87 % 0 mm 0 W/m2
21:54 3.4 °C 1.4 °C 1020.2 hPa WNW 8 km/h 12.9 km/h 87 % 0 mm 0 W/m2
21:59 3.5 °C 1.6 °C 1020.2 hPa WNW 11.3 km/h 16.1 km/h 87 % 0 mm 0 W/m2
22:04 3.6 °C 1.6 °C 1020.2 hPa WNW 11.3 km/h 16.1 km/h 87 % 0 mm 0 W/m2
22:09 3.7 °C 1.6 °C 1020.2 hPa WNW 9.7 km/h 11.3 km/h 86 % 0 mm 0 W/m2
22:14 3.6 °C 1.5 °C 1020.2 hPa WNW 8 km/h 11.3 km/h 86 % 0 mm 0 W/m2
22:19 3.6 °C 1.3 °C 1020.2 hPa WNW 8 km/h 11.3 km/h 85 % 0 mm 0 W/m2
22:24 3.6 °C 1.5 °C 1020.2 hPa WNW 11.3 km/h 14.5 km/h 86 % 0 mm 0 W/m2
22:29 3.6 °C 1.3 °C 1020.2 hPa WNW 9.7 km/h 14.5 km/h 85 % 0 mm 0 W/m2
22:34 3.6 °C 1.3 °C 1020.2 hPa WNW 11.3 km/h 17.7 km/h 85 % 0 mm 0 W/m2
22:39 3.7 °C 1.2 °C 1020.2 hPa WNW 9.7 km/h 16.1 km/h 84 % 0 mm 0 W/m2
22:44 3.7 °C 1.1 °C 1019.9 hPa WNW 11.3 km/h 17.7 km/h 83 % 0 mm 0 W/m2
22:49 3.7 °C 1.1 °C 1020.2 hPa WNW 9.7 km/h 14.5 km/h 83 % 0 mm 0 W/m2
22:54 3.8 °C 1 °C 1020.2 hPa WNW 11.3 km/h 12.9 km/h 82 % 0 mm 0 W/m2
22:59 3.8 °C 1 °C 1020.2 hPa WNW 11.3 km/h 14.5 km/h 82 % 0 mm 0 W/m2
23:04 3.7 °C 0.9 °C 1020.2 hPa WNW 9.7 km/h 16.1 km/h 82 % 0 mm 0 W/m2
23:09 3.7 °C 0.9 °C 1020.2 hPa WNW 11.3 km/h 16.1 km/h 82 % 0 mm 0 W/m2
23:14 3.7 °C 0.7 °C 1020.2 hPa WNW 9.7 km/h 16.1 km/h 81 % 0 mm 0 W/m2
23:19 3.7 °C 0.7 °C 1020.5 hPa WNW 11.3 km/h 14.5 km/h 81 % 0 mm 0 W/m2
23:24 3.7 °C 0.7 °C 1020.5 hPa WNW 6.4 km/h 11.3 km/h 81 % 0 mm 0 W/m2
23:29 3.6 °C 0.7 °C 1020.5 hPa NW 8 km/h 14.5 km/h 81 % 0 mm 0 W/m2
23:34 3.6 °C 0.7 °C 1020.5 hPa NW 8 km/h 11.3 km/h 81 % 0 mm 0 W/m2
23:39 3.5 °C 0.6 °C 1020.5 hPa NW 8 km/h 14.5 km/h 81 % 0 mm 0 W/m2
23:44 3.4 °C 0.4 °C 1020.5 hPa NW 8 km/h 12.9 km/h 81 % 0 mm 0 W/m2
23:49 3.4 °C 0.4 °C 1020.5 hPa WNW 9.7 km/h 12.9 km/h 81 % 0 mm 0 W/m2
23:54 3.3 °C 0.3 °C 1020.5 hPa WNW 9.7 km/h 14.5 km/h 81 % 0 mm 0 W/m2
23:59 3.3 °C 0.3 °C 1020.5 hPa WNW 11.3 km/h 16.1 km/h 81 % 0 mm 0 W/m2
Delerius-Weather
Compliments of Weather Underground - 2.25 mb

Data updates at regular intervals.